Big Rapids, MI

4:26 PM EDT on October 19, 2019 (GMT -0400)
Roben-Hood

Weather History for KRQB - September, 2019

Change the Weather History Date:

Wednesday, September 18, 2019

  Actual Average Record
Temperature  
Mean Temperature 66 °F -  
Max Temperature 79 °F 71 °F 84 °F (2007)
Min Temperature 52 °F 46 °F 29 °F (1990)
Growing Degree Days 16 (Base 50)    
Moisture  
Dew Point 57 °F    
Average Humidity 77    
Maximum Humidity 99    
Minimum Humidity 48    
Precipitation  
Precipitation 0.00 in - - ()
Sea Level Pressure  
Sea Level Pressure 30.16 in    
Wind  
Wind Speed 3 mph (South)    
Max Wind Speed 15 mph    
Max Gust Speed 22 mph    
Visibility 8 miles    
Events Fog    
Averages and records for this station are not official NWS values.
T = Trace of Precipitation, MM = Missing Value Source: NWS Daily Summary

Daily Weather History Graph

Daily Weather History Graph

Search for Another Location

Airport or City:

Astronomy

Sep. 18, 2019 Rise Set
Actual Time 7:24 AM EDT 7:47 PM EDT
Civil Twilight 6:55 AM EDT 8:15 PM EDT
Nautical Twilight 6:21 AM EDT 8:49 PM EDT
Astronomical Twilight 5:46 AM EDT 9:24 PM EDT
Moon 10:12 PM EDT (9/18) 11:34 AM EDT (9/18)
Length of Visible Light 13h 20m
Length of Day
12h 22m
Waning Gibbous, 82% of the Moon is Illuminated
Sep 18
Waning Gibbous
Sep 21
Last Quarter
Sep 28
New
Oct 5
First Quarter
Oct 13
Full

Hourly Weather History & Observations

Time (EDT) Temp. Dew Point Humidity Pressure Visibility Wind Dir Wind Speed Gust Speed Precip Events Conditions
12:15 AM 57.6 °F 56.3 °F 96% 30.18 in 10.0 mi Calm Calm - N/A   Clear
12:38 AM 57.7 °F 56.5 °F 96% 30.18 in 10.0 mi Calm Calm - N/A   Clear
12:55 AM 56.5 °F 55.0 °F 95% 30.18 in 10.0 mi Calm Calm - N/A   Clear
12:56 AM 56.5 °F 55.0 °F 95% 30.18 in 10.0 mi Calm Calm - N/A   Scattered Clouds
1:15 AM 56.3 °F 55.4 °F 97% 30.18 in 10.0 mi Calm Calm - N/A   Mostly Cloudy
1:16 AM 56.3 °F 55.4 °F 97% 30.18 in 10.0 mi Calm Calm - N/A   Mostly Cloudy
1:38 AM 56.5 °F 55.4 °F 96% 30.18 in 10.0 mi Calm Calm - N/A   Overcast
1:56 AM 56.1 °F 54.9 °F 96% 30.18 in 7.0 mi Calm Calm - N/A   Overcast
2:15 AM 55.8 °F 54.7 °F 96% 30.18 in 0.8 mi Calm Calm - N/A   Overcast
2:16 AM 55.8 °F 54.7 °F 96% 30.18 in 0.5 mi Calm Calm - N/A Fog Fog
2:38 AM 55.4 °F 54.5 °F 97% 30.18 in 0.5 mi Calm Calm - N/A Fog Fog
2:57 AM 54.5 °F 53.8 °F 97% 30.19 in 0.8 mi Calm Calm - N/A   Overcast
3:15 AM 54.0 °F 53.2 °F 97% 30.18 in 0.8 mi Calm Calm - N/A   Overcast
3:35 AM 54.5 °F 54.0 °F 98% 30.18 in 1.8 mi Calm Calm - N/A   Overcast
3:40 AM 54.5 °F 54.0 °F 98% 30.18 in 4.0 mi Calm Calm - N/A   Mostly Cloudy
3:57 AM 53.2 °F 52.5 °F 97% 30.18 in 7.0 mi Calm Calm - N/A   Overcast
4:15 AM 54.0 °F 53.6 °F 99% 30.18 in 2.0 mi Calm Calm - N/A   Overcast
4:16 AM 54.0 °F 53.6 °F 99% 30.18 in 2.0 mi Calm Calm - N/A   Overcast
4:35 AM 53.4 °F 52.7 °F 97% 30.18 in 0.8 mi Calm Calm - N/A   Overcast
4:36 AM 53.6 °F 52.9 °F 97% 30.18 in 0.8 mi Calm Calm - N/A   Overcast
4:58 AM 54.3 °F 53.6 °F 97% 30.18 in 5.0 mi Calm Calm - N/A   Mostly Cloudy
5:16 AM 53.6 °F 52.9 °F 97% 30.17 in 5.0 mi Calm Calm - N/A   Mostly Cloudy
5:35 AM 52.9 °F 52.3 °F 98% 30.17 in 1.0 mi Calm Calm - N/A   Overcast
5:36 AM 52.9 °F 52.3 °F 98% 30.17 in 1.2 mi Calm Calm - N/A   Overcast
5:55 AM 52.5 °F 52.0 °F 98% 30.17 in 5.0 mi Calm Calm - N/A   Overcast
6:17 AM 52.2 °F 51.8 °F 99% 30.17 in 2.0 mi Calm Calm - N/A   Overcast
6:35 AM 52.9 °F 52.2 °F 97% 30.17 in 1.0 mi Calm Calm - N/A   Overcast
6:55 AM 52.7 °F 52.2 °F 98% 30.17 in 4.0 mi Calm Calm - N/A   Scattered Clouds
6:59 AM 52.7 °F 52.0 °F 97% 30.17 in 5.0 mi Calm Calm - N/A   Scattered Clouds
7:17 AM 52.3 °F 51.8 °F 98% 30.17 in 5.0 mi Calm Calm - N/A   Scattered Clouds
7:36 AM 52.5 °F 51.8 °F 97% 30.18 in 10.0 mi Calm Calm - N/A   Scattered Clouds
7:55 AM 52.0 °F 51.3 °F 97% 30.17 in 5.0 mi Calm Calm - N/A   Scattered Clouds
7:56 AM 52.0 °F 51.3 °F 97% 30.17 in 5.0 mi Calm Calm - N/A   Scattered Clouds
8:18 AM 53.6 °F 52.9 °F 97% 30.17 in 10.0 mi NE 3.5 mph - N/A   Clear
8:35 AM 54.7 °F 54.0 °F 97% 30.18 in 7.0 mi Calm Calm - N/A   Clear
8:55 AM 57.6 °F 56.8 °F 97% 30.18 in 10.0 mi Calm Calm - N/A   Clear
9:19 AM 59.9 °F 58.8 °F 96% 30.18 in 10.0 mi Calm Calm - N/A   Clear
9:36 AM 62.1 °F 60.3 °F 94% 30.18 in 10.0 mi Calm Calm - N/A   Clear
9:55 AM 65.3 °F 59.9 °F 83% 30.19 in 10.0 mi SSE 5.8 mph - N/A   Clear
9:56 AM 65.3 °F 59.7 °F 82% 30.19 in 10.0 mi SSE 5.8 mph - N/A   Clear
10:15 AM 66.6 °F 59.7 °F 79% 30.19 in 10.0 mi SSE 5.8 mph - N/A   Clear
10:20 AM 66.9 °F 59.9 °F 78% 30.19 in 10.0 mi SE 8.1 mph - N/A   Clear
10:37 AM 67.8 °F 59.0 °F 73% 30.19 in 10.0 mi SSE 8.1 mph - N/A   Clear
10:55 AM 69.1 °F 58.8 °F 70% 30.19 in 10.0 mi SSE 8.1 mph - N/A   Clear
10:56 AM 69.3 °F 59.0 °F 70% 30.19 in 10.0 mi SSE 8.1 mph - N/A   Clear
11:15 AM 70.7 °F 58.5 °F 65% 30.19 in 10.0 mi SSE 12.7 mph - N/A   Clear
11:37 AM 72.0 °F 59.0 °F 64% 30.19 in 10.0 mi South 9.2 mph - N/A   Clear
11:55 AM 72.9 °F 59.4 °F 62% 30.19 in 10.0 mi SSW 10.4 mph 16.1 mph N/A   Clear
11:56 AM 73.0 °F 59.4 °F 62% 30.19 in 10.0 mi SSW 9.2 mph 16.1 mph N/A   Clear
12:15 PM 74.1 °F 59.9 °F 61% 30.19 in 10.0 mi South 11.5 mph - N/A   Clear
12:38 PM 74.5 °F 60.3 °F 61% 30.19 in 10.0 mi South 9.2 mph - N/A   Clear
12:55 PM 75.4 °F 59.4 °F 57% 30.19 in 10.0 mi SSW 9.2 mph 18.4 mph N/A   Clear
1:15 PM 76.1 °F 60.1 °F 57% 30.20 in 10.0 mi South 11.5 mph 19.6 mph N/A   Clear
1:38 PM 77.0 °F 60.1 °F 56% 30.20 in 10.0 mi South 9.2 mph - N/A   Clear
1:56 PM 77.2 °F 58.8 °F 53% 30.19 in 10.0 mi South 13.8 mph 18.4 mph N/A   Clear
2:15 PM 77.5 °F 59.4 °F 53% 30.19 in 10.0 mi SSW 9.2 mph 18.4 mph N/A   Clear
2:16 PM 77.5 °F 59.4 °F 53% 30.19 in 10.0 mi SSW 10.4 mph 19.6 mph N/A   Clear
2:35 PM 78.3 °F 59.5 °F 52% 30.18 in 10.0 mi South 10.4 mph 18.4 mph N/A   Clear
2:39 PM 78.6 °F 59.4 °F 51% 30.18 in 10.0 mi South 12.7 mph 18.4 mph N/A   Clear
2:57 PM 78.8 °F 58.6 °F 50% 30.18 in 10.0 mi South 9.2 mph 16.1 mph N/A   Clear
3:15 PM 78.8 °F 59.2 °F 51% 30.17 in 10.0 mi SSW 9.2 mph 19.6 mph N/A   Clear
3:16 PM 78.8 °F 59.4 °F 51% 30.17 in 10.0 mi South 9.2 mph 19.6 mph N/A   Clear
3:35 PM 79.0 °F 59.0 °F 50% 30.16 in 10.0 mi South 10.4 mph 18.4 mph N/A   Clear
3:36 PM 78.8 °F 58.8 °F 50% 30.16 in 10.0 mi South 9.2 mph 18.4 mph N/A   Clear
3:58 PM 78.8 °F 58.3 °F 49% 30.15 in 10.0 mi South 9.2 mph 20.7 mph N/A   Clear
4:35 PM 79.0 °F 58.6 °F 50% 30.14 in 10.0 mi South 9.2 mph 21.9 mph N/A   Clear
4:59 PM 78.8 °F 58.6 °F 50% 30.14 in 10.0 mi SSE 11.5 mph 17.3 mph N/A   Clear
5:16 PM 79.3 °F 58.5 °F 49% 30.13 in 10.0 mi South 15.0 mph 19.6 mph N/A   Clear
5:35 PM 78.8 °F 57.6 °F 48% 30.13 in 10.0 mi South 12.7 mph 19.6 mph N/A   Clear
5:36 PM 78.8 °F 57.7 °F 48% 30.13 in 10.0 mi South 11.5 mph 19.6 mph N/A   Clear
5:55 PM 79.2 °F 57.7 °F 48% 30.13 in 10.0 mi SSE 13.8 mph 20.7 mph N/A   Clear
6:16 PM 78.8 °F 57.4 °F 48% 30.12 in 10.0 mi SSE 8.1 mph 20.7 mph N/A   Clear
6:35 PM 77.7 °F 57.0 °F 49% 30.12 in 10.0 mi South 12.7 mph 18.4 mph N/A   Clear
6:36 PM 77.7 °F 57.0 °F 49% 30.12 in 10.0 mi South 12.7 mph 18.4 mph N/A   Clear
6:55 PM 76.3 °F 57.9 °F 53% 30.12 in 10.0 mi South 12.7 mph 19.6 mph N/A   Clear
6:56 PM 76.3 °F 57.9 °F 53% 30.12 in 10.0 mi South 12.7 mph 17.3 mph N/A   Clear
7:18 PM 74.8 °F 59.2 °F 58% 30.12 in 10.0 mi SSE 3.5 mph - N/A   Clear
7:35 PM 73.8 °F 59.2 °F 60% 30.12 in 10.0 mi SSW 9.2 mph - N/A   Clear
7:55 PM 70.2 °F 60.8 °F 72% 30.12 in 10.0 mi South 6.9 mph - N/A   Clear
8:19 PM 67.1 °F 61.2 °F 81% 30.12 in 10.0 mi SSE 3.5 mph - N/A   Clear
8:36 PM 68.4 °F 61.0 °F 77% 30.12 in 10.0 mi SSE 4.6 mph - N/A   Clear
8:55 PM 68.4 °F 60.6 °F 76% 30.13 in 10.0 mi South 6.9 mph - N/A   Clear
8:56 PM 68.4 °F 60.4 °F 76% 30.13 in 10.0 mi South 5.8 mph - N/A   Clear
9:15 PM 68.7 °F 60.1 °F 74% 30.13 in 10.0 mi Calm Calm - N/A   Clear
9:37 PM 66.0 °F 60.3 °F 82% 30.13 in 10.0 mi SSE 3.5 mph - N/A   Clear
9:55 PM 66.0 °F 60.3 °F 82% 30.14 in 10.0 mi SE 4.6 mph - N/A   Clear
10:15 PM 66.2 °F 59.9 °F 80% 30.14 in 10.0 mi South 5.8 mph - N/A   Clear
10:16 PM 66.2 °F 59.9 °F 80% 30.14 in 10.0 mi South 5.8 mph - N/A   Clear
10:38 PM 67.3 °F 58.8 °F 74% 30.14 in 10.0 mi SSE 6.9 mph - N/A   Clear
10:55 PM 67.3 °F 58.1 °F 72% 30.13 in 10.0 mi SSE 8.1 mph - N/A   Clear
10:56 PM 67.3 °F 58.1 °F 72% 30.13 in 10.0 mi SSE 8.1 mph - N/A   Clear
11:15 PM 67.1 °F 57.4 °F 71% 30.13 in 10.0 mi SE 6.9 mph - N/A   Clear
11:38 PM 65.8 °F 56.8 °F 73% 30.14 in 10.0 mi South 5.8 mph - N/A   Clear
11:55 PM 64.9 °F 56.8 °F 75% 30.14 in 10.0 mi South 6.9 mph - N/A   Clear
11:56 PM 64.8 °F 56.8 °F 75% 30.14 in 10.0 mi South 6.9 mph - N/A   Clear